�������l�o���
Date,Time,MP-1(��Sv/h),MP-2(��Sv/h),MP-3(��Sv/h),MP-4(��Sv/h),MP-5(��Sv/h),MP-6(��Sv/h),MP-7(��Sv/h),MP-8(��Sv/h),����,����(m/s),���J
2023/02/09,00:00,0.551,0.799,0.503,1.022,0.709,0.318,0.577,0.548,�k��,5.1,��
2023/02/09,00:10,0.551,0.796,0.504,1.024,0.709,0.318,0.576,0.548,�k��,4.6,��
2023/02/09,00:20,0.551,0.798,0.504,1.024,0.709,0.318,0.576,0.549,�k��,3.5,��
2023/02/09,00:30,0.551,0.797,0.503,1.023,0.710,0.318,0.577,0.549,�k��,3.3,��
2023/02/09,00:40,0.553,0.796,0.503,1.024,0.709,0.318,0.575,0.549,�k�k��,3.8,��
2023/02/09,00:50,0.551,0.795,0.503,1.024,0.709,0.318,0.577,0.547,�k�k��,4.4,��
2023/02/09,01:00,0.550,0.797,0.503,1.024,0.708,0.317,0.578,0.549,�k�k��,4.0,��
2023/02/09,01:10,0.551,0.793,0.503,1.021,0.708,0.317,0.575,0.547,�k��,4.7,��
2023/02/09,01:20,0.550,0.795,0.505,1.022,0.709,0.317,0.576,0.548,�k�k��,6.1,��
2023/02/09,01:30,0.552,0.795,0.503,1.023,0.707,0.317,0.576,0.547,�k�k��,5.9,��
2023/02/09,01:40,0.549,0.795,0.502,1.024,0.708,0.317,0.575,0.548,�k��,5.2,��
2023/02/09,01:50,0.549,0.796,0.502,1.023,0.708,0.316,0.576,0.550,�k��,5.9,��
2023/02/09,02:00,0.551,0.796,0.504,1.023,0.709,0.318,0.576,0.550,�k��,6.2,��
2023/02/09,02:10,0.552,0.795,0.503,1.025,0.708,0.318,0.576,0.548,�k��,7.4,��
2023/02/09,02:20,0.549,0.796,0.503,1.022,0.709,0.317,0.578,0.549,�k��,6.2,��
2023/02/09,02:30,0.551,0.798,0.504,1.024,0.708,0.317,0.576,0.549,�k��,4.5,��
2023/02/09,02:40,0.551,0.795,0.503,1.024,0.709,0.317,0.576,0.549,�k��,6.0,��
2023/02/09,02:50,0.550,0.795,0.502,1.025,0.707,0.317,0.576,0.548,�k��,5.2,��
2023/02/09,03:00,0.551,0.795,0.503,1.023,0.709,0.318,0.575,0.548,�k��,5.5,��
2023/02/09,03:10,0.550,0.795,0.502,1.024,0.708,0.318,0.577,0.550,�k��,6.9,��
2023/02/09,03:20,0.550,0.796,0.503,1.022,0.709,0.317,0.576,0.548,�k��,6.1,��
2023/02/09,03:30,0.550,0.795,0.504,1.022,0.708,0.317,0.576,0.548,�k��,6.6,��
2023/02/09,03:40,0.551,0.795,0.503,1.022,0.706,0.316,0.577,0.549,�k��,7.0,��
2023/02/09,03:50,0.549,0.795,0.503,1.024,0.707,0.316,0.577,0.549,�k��,8.7,��
2023/02/09,04:00,0.551,0.793,0.503,1.024,0.708,0.316,0.577,0.549,�k��,8.8,��
2023/02/09,04:10,0.551,0.799,0.504,1.024,0.707,0.317,0.577,0.548,�k��,9.7,��
2023/02/09,04:20,0.550,0.795,0.502,1.023,0.710,0.316,0.578,0.549,�k��,10.0,��
2023/02/09,04:30,0.549,0.796,0.502,1.025,0.708,0.316,0.577,0.550,�k��,10.6,��
2023/02/09,04:40,0.550,0.794,0.501,1.022,0.708,0.314,0.577,0.547,�k��,8.6,��
2023/02/09,04:50,0.549,0.795,0.501,1.024,0.709,0.315,0.578,0.549,�k��,9.2,��
2023/02/09,05:00,0.551,0.795,0.501,1.023,0.706,0.317,0.578,0.550,�k��,10.0,��
2023/02/09,05:10,0.550,0.795,0.502,1.024,0.707,0.315,0.577,0.550,�k��,7.9,��
2023/02/09,05:20,0.549,0.797,0.501,1.024,0.708,0.316,0.577,0.548,���k��,5.6,��
2023/02/09,05:30,0.550,0.796,0.502,1.022,0.708,0.315,0.576,0.550,�k��,7.5,��
2023/02/09,05:40,0.551,0.794,0.502,1.025,0.709,0.315,0.578,0.549,�k��,7.6,��
2023/02/09,05:50,0.551,0.795,0.501,1.023,0.707,0.315,0.577,0.549,�k��,6.7,��
2023/02/09,06:00,0.551,0.796,0.501,1.025,0.707,0.316,0.577,0.549,�k��,5.9,��
2023/02/09,06:10,0.550,0.796,0.503,1.024,0.709,0.316,0.577,0.549,�k��,6.8,��
2023/02/09,06:20,0.550,0.795,0.503,1.024,0.706,0.316,0.578,0.550,�k�k��,5.8,��
2023/02/09,06:30,0.551,0.796,0.503,1.024,0.707,0.317,0.577,0.549,�k�k��,5.8,��
2023/02/09,06:40,0.550,0.796,0.503,1.023,0.709,0.317,0.578,0.549,�k��,5.6,��
2023/02/09,06:50,0.551,0.794,0.503,1.025,0.707,0.318,0.578,0.550,�k��,5.8,��
2023/02/09,07:00,0.550,0.795,0.501,1.023,0.707,0.317,0.577,0.550,�k��,5.8,��
2023/02/09,07:10,0.550,0.794,0.502,1.025,0.708,0.317,0.577,0.551,�k��,4.3,��
2023/02/09,07:20,0.552,0.795,0.502,1.024,0.706,0.317,0.577,0.550,���k��,4.4,��
2023/02/09,07:30,0.552,0.796,0.502,1.026,0.707,0.317,0.577,0.548,���k��,4.7,��
2023/02/09,07:40,0.551,0.797,0.502,1.022,0.707,0.315,0.578,0.548,���k��,5.5,��
2023/02/09,07:50,0.548,0.795,0.503,1.025,0.709,0.316,0.578,0.549,�k��,6.2,��
2023/02/09,08:00,0.549,0.794,0.504,1.027,0.707,0.318,0.578,0.550,�k��,5.2,��
2023/02/09,08:10,0.552,0.794,0.503,1.025,0.706,0.316,0.580,0.550,���k��,4.5,��
2023/02/09,08:20,0.551,0.795,0.504,1.025,0.709,0.317,0.577,0.549,�k��,6.6,��
2023/02/09,08:30,0.551,0.796,0.502,1.024,0.707,0.317,0.578,0.550,�k��,7.9,��
2023/02/09,08:40,0.549,0.798,0.502,1.025,0.708,0.317,0.578,0.548,���k��,6.0,��
2023/02/09,08:50,0.551,0.796,0.503,1.027,0.708,0.317,0.578,0.549,���k��,5.1,��
2023/02/09,09:00,0.552,0.795,0.503,1.025,0.707,0.317,0.579,0.549,���k��,6.8,��
2023/02/09,09:10,0.551,0.796,0.502,1.027,0.710,0.318,0.578,0.547,�k��,5.4,��
2023/02/09,09:20,0.550,0.797,0.503,1.024,0.711,0.318,0.578,0.550,�k��,4.9,��
2023/02/09,09:30,0.552,0.797,0.502,1.025,0.710,0.319,0.577,0.549,���k��,5.9,��
2023/02/09,09:40,0.552,0.797,0.504,1.026,0.710,0.317,0.577,0.548,���k��,11.6,��
2023/02/09,09:50,0.554,0.797,0.503,1.025,0.710,0.317,0.577,0.550,���k��,7.2,��
2023/02/09,10:00,0.554,0.799,0.504,1.026,0.711,0.317,0.577,0.550,�k��,10.0,��
2023/02/09,10:10,0.552,0.798,0.504,1.027,0.710,0.317,0.578,0.551,���k��,7.2,��
2023/02/09,10:20,0.554,0.800,0.504,1.026,0.711,0.318,0.578,0.550,���k��,8.9,��
2023/02/09,10:30,0.555,0.796,0.504,1.025,0.712,0.319,0.577,0.551,���k��,10.6,��
2023/02/09,10:40,0.554,0.797,0.505,1.028,0.713,0.317,0.577,-,���k��,8.9,��
2023/02/09,10:50,0.553,0.801,0.505,1.028,0.710,0.319,0.579,-,���k��,9.9,��
2023/02/09,11:00,0.554,0.800,0.506,1.029,0.712,0.318,0.577,-,�k��,10.2,��
2023/02/09,11:10,0.555,0.799,0.505,1.028,0.713,0.318,0.577,-,���k��,9.3,��
2023/02/09,11:20,0.556,0.798,0.505,1.028,0.712,0.319,0.578,-,�k��,9.3,��
2023/02/09,11:30,0.553,0.799,0.504,1.030,0.713,0.319,0.577,-,�k��,8.4,��
2023/02/09,11:40,0.552,0.800,0.505,1.026,0.714,0.318,0.577,-,�k��,7.0,��
2023/02/09,11:50,0.551,0.799,0.505,1.029,0.711,0.317,0.578,-,���k��,7.7,��
2023/02/09,12:00,0.554,0.796,0.505,1.026,0.712,0.319,0.577,-,���k��,7.9,��
2023/02/09,12:10,0.554,0.802,0.506,1.028,0.713,0.317,0.577,-,���k��,5.5,��
2023/02/09,12:20,0.554,0.800,0.506,1.031,0.713,0.318,0.578,-,��,5.7,��
2023/02/09,12:30,0.556,0.802,0.507,1.030,0.713,0.319,0.578,-,���k��,6.4,��
2023/02/09,12:40,0.557,0.800,0.505,1.030,0.714,0.317,0.576,-,�k��,7.5,��
2023/02/09,12:50,0.555,0.802,0.505,1.029,0.714,0.319,0.576,-,���k��,5.5,��
2023/02/09,13:00,0.556,0.801,0.508,1.028,0.713,0.319,0.576,-,�k��,6.0,��
2023/02/09,13:10,0.555,0.800,0.505,1.030,0.714,0.318,0.576,-,�k��,3.1,��
2023/02/09,13:20,0.556,0.800,0.505,1.030,0.715,0.318,0.577,-,���쐼,2.3,��
2023/02/09,13:30,0.556,0.800,0.507,1.029,0.715,0.320,0.577,-,�쐼,3.8,��
2023/02/09,13:40,0.555,0.800,0.506,1.031,0.714,0.318,0.577,-,���쐼,3.0,��
2023/02/09,13:50,0.557,0.800,0.505,1.029,0.715,0.317,0.578,-,��,4.0,��
2023/02/09,14:00,0.556,0.801,0.507,1.030,0.714,0.319,0.577,-,�k��,2.5,��
2023/02/09,14:10,0.555,0.803,0.506,1.030,0.717,0.318,0.579,-,��,2.0,��
2023/02/09,14:20,0.556,0.802,0.507,1.031,0.715,0.317,0.579,-,�k��,3.4,��
2023/02/09,14:30,0.556,0.804,0.508,1.029,0.715,0.319,0.577,-,��,3.1,��
2023/02/09,14:40,0.556,0.802,0.508,1.031,0.715,0.318,0.581,-,���k��,1.4,��
2023/02/09,14:50,0.556,0.805,0.508,1.028,0.713,0.320,0.578,-,�k��,3.6,��
2023/02/09,15:00,0.556,0.803,0.508,1.029,0.716,0.319,0.579,-,�k��,5.0,��
2023/02/09,15:10,0.555,0.804,0.507,1.031,0.715,0.319,0.580,-,�k��,3.0,��
2023/02/09,15:20,0.556,0.805,0.509,1.030,0.716,0.318,0.578,0.551,���k��,4.9,��
2023/02/09,15:30,0.556,0.803,0.508,1.031,0.716,0.318,0.580,0.552,�k�k��,4.5,��
2023/02/09,15:40,0.556,0.804,0.506,1.030,0.715,0.318,0.580,-,�k�k��,4.5,��
2023/02/09,15:50,0.554,0.804,0.507,1.033,0.714,0.318,0.580,-,�k�k��,4.8,��
2023/02/09,16:00,0.556,0.806,0.509,1.033,0.716,0.318,0.580,0.551,�k�k��,4.5,��
2023/02/09,16:10,0.555,0.804,0.508,1.030,0.716,0.318,0.579,0.551,�k��,5.2,��
2023/02/09,16:20,0.555,0.805,0.508,1.032,0.715,0.318,0.579,0.551,�k��,5.7,��
2023/02/09,16:30,0.555,0.804,0.506,1.032,0.717,0.317,0.578,0.551,�k��,6.9,��
2023/02/09,16:40,0.556,0.804,0.507,1.031,0.714,0.320,0.579,0.551,�k��,7.6,��
2023/02/09,16:50,0.557,0.804,0.507,1.030,0.715,0.319,0.579,0.552,�k��,8.3,��
2023/02/09,17:00,0.555,0.805,0.507,1.031,0.714,0.318,0.578,0.551,�k��,7.2,��
2023/02/09,17:10,0.556,0.804,0.508,1.031,0.716,0.318,0.578,0.551,�k��,6.0,��
2023/02/09,17:20,0.556,0.804,0.507,1.030,0.714,0.318,0.579,0.551,�k��,7.1,��
2023/02/09,17:30,0.557,0.802,0.506,1.030,0.717,0.319,0.579,0.550,�k��,7.7,��
2023/02/09,17:40,0.556,0.804,0.508,1.032,0.716,0.318,0.578,0.551,�k��,8.1,��
2023/02/09,17:50,0.555,0.803,0.508,1.031,0.717,0.318,0.580,0.551,�k��,7.1,��
2023/02/09,18:00,0.555,0.804,0.510,1.030,0.713,0.317,0.580,0.550,�k��,5.3,��
2023/02/09,18:10,0.555,0.805,0.508,1.031,0.715,0.317,0.580,0.550,�k��,4.5,��
2023/02/09,18:20,0.554,0.804,0.507,1.031,0.716,0.317,0.579,0.551,���k��,3.1,��
2023/02/09,18:30,0.554,0.803,0.506,1.031,0.716,0.317,0.580,0.551,���쐼,2.0,��
2023/02/09,18:40,0.553,0.803,0.508,1.031,0.714,0.320,0.579,0.550,��,2.9,��
2023/02/09,18:50,0.554,0.802,0.506,1.029,0.713,0.318,0.577,0.550,��,3.0,��
2023/02/09,19:00,0.555,0.804,0.508,1.031,0.715,0.318,0.578,0.551,���k��,4.3,��
2023/02/09,19:10,0.553,0.803,0.505,1.032,0.714,0.317,0.577,0.550,�k��,4.5,��
2023/02/09,19:20,0.555,0.803,0.507,1.031,0.714,0.318,0.579,0.549,�k��,5.0,��
2023/02/09,19:30,0.555,0.804,0.506,1.030,0.713,0.318,0.579,0.550,���k��,6.1,��
2023/02/09,19:40,0.554,0.803,0.507,1.032,0.715,0.318,0.579,0.550,���k��,5.6,��
2023/02/09,19:50,0.552,0.804,0.507,1.030,0.715,0.318,0.579,0.551,���k��,4.7,��
2023/02/09,20:00,0.555,0.805,0.506,1.031,0.717,0.319,0.578,0.550,�k��,5.0,��
2023/02/09,20:10,0.553,0.805,0.506,1.027,0.716,0.318,0.577,0.550,���k��,5.7,��
2023/02/09,20:20,0.553,0.801,0.506,1.031,0.715,0.317,0.578,0.549,���k��,5.6,��
2023/02/09,20:30,0.554,0.804,0.506,1.029,0.716,0.317,0.578,0.549,���k��,5.6,��
2023/02/09,20:40,0.554,0.803,0.505,1.029,0.714,0.317,0.579,0.550,��,4.6,��
2023/02/09,20:50,0.554,0.805,0.506,1.031,0.715,0.317,0.578,0.549,���쐼,2.6,��
2023/02/09,21:00,0.553,0.805,0.506,1.033,0.715,0.318,0.578,0.551,��,2.3,��
2023/02/09,21:10,0.553,0.804,0.505,1.030,0.714,0.317,0.577,0.550,���k��,3.1,��
2023/02/09,21:20,0.553,0.802,0.506,1.030,0.714,0.316,0.578,0.550,���k��,3.7,��
2023/02/09,21:30,0.553,0.805,0.508,1.032,0.713,0.316,0.577,0.552,�k��,4.8,��
2023/02/09,21:40,0.552,0.803,0.506,1.030,0.712,0.318,0.577,0.548,�k��,4.2,��
2023/02/09,21:50,0.554,0.803,0.506,1.027,0.714,0.316,0.577,0.550,���k��,2.6,��
2023/02/09,22:00,0.552,0.802,0.505,1.032,0.714,0.316,0.579,0.549,�k��,3.7,��
2023/02/09,22:10,0.552,0.804,0.506,1.032,0.715,0.318,0.576,0.549,�k��,3.9,��
2023/02/09,22:20,0.552,0.804,0.506,1.030,0.712,0.318,0.576,0.550,�k�k��,3.6,��
2023/02/09,22:30,0.553,0.804,0.506,1.030,0.715,0.317,0.576,0.550,�k��,4.2,��
2023/02/09,22:40,0.552,0.802,0.506,1.030,0.714,0.318,0.576,0.550,�k��,4.4,��
2023/02/09,22:50,0.554,0.801,0.504,1.029,0.715,0.316,0.578,0.550,�k��,4.6,��
2023/02/09,23:00,0.553,0.802,0.505,1.029,0.713,0.316,0.577,0.550,���k��,4.2,��
2023/02/09,23:10,0.552,0.803,0.506,1.031,0.714,0.318,0.577,0.549,���k��,4.6,��
2023/02/09,23:20,0.553,0.803,0.505,1.032,0.713,0.319,0.577,0.551,�k��,2.6,��
2023/02/09,23:30,0.552,0.801,0.507,1.032,0.714,0.318,0.576,0.550,���k��,3.3,��
2023/02/09,23:40,0.554,0.803,0.506,1.030,0.715,0.317,0.576,0.549,���k��,0.9,��
2023/02/09,23:50,-,-,-,-,-,-,-,-,-,-,-
